TimeAKST,TemperatureF,Dew PointF,Humidity,Sea Level PressureIn,VisibilityMPH,Wind Direction,Wind SpeedMPH,Gust SpeedMPH,PrecipitationIn,Events,Conditions,WindDirDegrees,DateUTC
12:53 AM,3.0,-0.0,87,30.28,10.0,Calm,Calm,-,N/A,,Mostly Cloudy,0,2013-01-21 09:53:00
1:53 AM,-0.9,-4.0,87,30.29,10.0,Calm,Calm,-,N/A,,Scattered Clouds,0,2013-01-21 10:53:00
3:53 AM,-5.1,-9.0,83,30.30,10.0,Calm,Calm,-,N/A,,Partly Cloudy,0,2013-01-21 12:53:00
4:53 AM,-9.0,-13.0,83,30.32,10.0,SSE,4.6,-,N/A,,Partly Cloudy,160,2013-01-21 13:53:00
5:53 AM,-9.0,-13.0,83,30.32,10.0,Calm,Calm,-,N/A,,Partly Cloudy,0,2013-01-21 14:53:00
6:53 AM,-11.9,-15.0,86,30.32,10.0,ESE,4.6,-,N/A,,Clear,110,2013-01-21 15:53:00
7:53 AM,-14.1,-18.0,82,30.33,10.0,Calm,Calm,-,N/A,,Clear,0,2013-01-21 16:53:00
8:53 AM,-13.0,-17.0,82,30.35,10.0,Calm,Calm,-,N/A,,Partly Cloudy,0,2013-01-21 17:53:00
9:53 AM,-15.0,-20.0,78,30.35,10.0,Calm,Calm,-,N/A,,Partly Cloudy,0,2013-01-21 18:53:00
10:53 AM,-16.1,-20.0,82,30.34,10.0,Calm,Calm,-,N/A,,Clear,0,2013-01-21 19:53:00
11:53 AM,-11.0,-15.0,83,30.35,10.0,Calm,Calm,-,N/A,,Partly Cloudy,0,2013-01-21 20:53:00
12:53 PM,3.9,-2.9,73,30.34,10.0,NNE,5.8,-,N/A,,Partly Cloudy,30,2013-01-21 21:53:00
1:53 PM,12.0,1.0,61,30.33,10.0,Variable,5.8,-,N/A,,Partly Cloudy,0,2013-01-21 22:53:00
2:53 PM,12.0,-0.9,56,30.33,10.0,Variable,5.8,-,N/A,,Partly Cloudy,0,2013-01-21 23:53:00
3:53 PM,12.0,-0.9,56,30.33,10.0,Variable,6.9,19.6,N/A,,Partly Cloudy,0,2013-01-22 00:53:00
4:53 PM,10.9,-0.9,59,30.32,10.0,ENE,6.9,18.4,N/A,,Partly Cloudy,60,2013-01-22 01:53:00
5:53 PM,10.9,-2.0,56,30.31,10.0,ENE,8.1,-,N/A,,Partly Cloudy,60,2013-01-22 02:53:00
6:53 PM,12.0,-2.0,53,30.30,10.0,ENE,9.2,19.6,N/A,,Clear,70,2013-01-22 03:53:00
7:53 PM,12.0,-2.9,51,30.30,10.0,ENE,10.4,32.2,N/A,,Clear,60,2013-01-22 04:53:00
8:53 PM,12.0,-4.0,49,30.30,10.0,ENE,10.4,21.9,N/A,,Clear,60,2013-01-22 05:53:00
9:53 PM,12.0,-6.0,44,30.30,10.0,ENE,10.4,25.3,N/A,,Clear,70,2013-01-22 06:53:00
10:53 PM,12.0,-7.1,42,30.29,10.0,ENE,15.0,27.6,N/A,,Clear,60,2013-01-22 07:53:00
11:53 PM,12.0,-7.1,42,30.28,10.0,Variable,6.9,21.9,N/A,,Clear,0,2013-01-22 08:53:00